Previsão horária em Semykivtsi

Hoje, 30 Julho, Sexta-feira

Tempo Temperatura Precipitação Vento Pressão Humidade
00:00 +19°C° 0 mm 2 m/s 730 mmHg 86%
01:00 +18°C° 0 mm 2 m/s 730 mmHg 86%
02:00 +18°C° 0 mm 2 m/s 730 mmHg 86%
03:00 +18°C° 0 mm 2 m/s 730 mmHg 86%
04:00 +18°C° 0 mm 2 m/s 730 mmHg 85%
05:00 +18°C° 0 mm 2 m/s 730 mmHg 85%
06:00 +19°C° 0 mm 2 m/s 730 mmHg 79%
07:00 +21°C° 0 mm 2 m/s 730 mmHg 74%
08:00 +24°C° 0 mm 2 m/s 730 mmHg 68%
09:00 +25°C° 0 mm 2 m/s 730 mmHg 62%
10:00 +26°C° 0 mm 2 m/s 730 mmHg 57%
11:00 +27°C° 0 mm 2 m/s 730 mmHg 51%
12:00 +28°C° 0 mm 2 m/s 730 mmHg 50%
13:00 +28°C° 0 mm 2 m/s 730 mmHg 48%
14:00 +29°C° 0 mm 3 m/s 730 mmHg 46%
15:00 +29°C° 0 mm 3 m/s 729 mmHg 47%
16:00 +29°C° 0 mm 2 m/s 729 mmHg 48%
17:00 +29°C° 0 mm 2 m/s 729 mmHg 49%
18:00 +27°C° 0 mm 2 m/s 729 mmHg 53%
19:00 +25°C° 0 mm 2 m/s 729 mmHg 58%
20:00 +24°C° 0 mm 1 m/s 729 mmHg 63%
21:00 +23°C° 0 mm 2 m/s 729 mmHg 65%
22:00 +21°C° 0 mm 2 m/s 729 mmHg 66%
23:00 +21°C° 0 mm 2 m/s 729 mmHg 68%

Amanhã, 31 Julho, Sábado

Tempo Temperatura Precipitação Vento Pressão Humidade
00:00 +20°C° 0 mm 2 m/s 729 mmHg 71%
01:00 +20°C° 0 mm 2 m/s 729 mmHg 75%
02:00 +20°C° 0 mm 2 m/s 728 mmHg 79%
03:00 +19°C° 0.1 mm 2 m/s 728 mmHg 82%
04:00 +19°C° 0.1 mm 2 m/s 728 mmHg 85%
05:00 +19°C° 0.1 mm 3 m/s 728 mmHg 88%
06:00 +20°C° 0 mm 3 m/s 728 mmHg 83%
07:00 +22°C° 0 mm 3 m/s 728 mmHg 77%
08:00 +25°C° 0 mm 3 m/s 729 mmHg 72%
09:00 +26°C° 0 mm 3 m/s 729 mmHg 66%
10:00 +28°C° 0 mm 3 m/s 729 mmHg 60%
11:00 +30°C° 0 mm 3 m/s 729 mmHg 53%
12:00 +30°C° 0 mm 3 m/s 728 mmHg 50%
13:00 +31°C° 0 mm 3 m/s 728 mmHg 46%
14:00 +33°C° 0 mm 3 m/s 728 mmHg 42%
15:00 +32°C° 0 mm 4 m/s 728 mmHg 46%
16:00 +32°C° 0 mm 4 m/s 727 mmHg 49%
17:00 +30°C° 0 mm 4 m/s 727 mmHg 52%
18:00 +29°C° 0 mm 4 m/s 727 mmHg 59%
19:00 +27°C° 0 mm 4 m/s 727 mmHg 65%
20:00 +25°C° 0 mm 3 m/s 727 mmHg 71%
21:00 +22°C° 0.2 mm 4 m/s 727 mmHg 78%
22:00 +21°C° 0.2 mm 4 m/s 727 mmHg 85%
23:00 +20°C° 0.2 mm 4 m/s 728 mmHg 91%

Depois de amanhã, 1 Agosto, Domingo

Tempo Temperatura Precipitação Vento Pressão Humidade
00:00 +19°C° 0 mm 3 m/s 728 mmHg 93%
01:00 +18°C° 0 mm 3 m/s 728 mmHg 95%
02:00 +18°C° 0 mm 2 m/s 728 mmHg 97%
03:00 +17°C° 0 mm 2 m/s 728 mmHg 97%
04:00 +17°C° 0 mm 2 m/s 728 mmHg 97%
05:00 +17°C° 0 mm 2 m/s 728 mmHg 97%
06:00 +19°C° 0 mm 1 m/s 728 mmHg 90%
07:00 +20°C° 0 mm 1 m/s 729 mmHg 84%
08:00 +22°C° 0 mm 1 m/s 729 mmHg 77%
09:00 +24°C° 0 mm 1 m/s 729 mmHg 70%
10:00 +25°C° 0 mm 2 m/s 729 mmHg 63%
11:00 +27°C° 0 mm 2 m/s 729 mmHg 56%
12:00 +28°C° 0 mm 2 m/s 729 mmHg 54%
13:00 +29°C° 0 mm 3 m/s 728 mmHg 52%
14:00 +30°C° 0 mm 3 m/s 728 mmHg 50%
15:00 +30°C° 0 mm 4 m/s 727 mmHg 52%
16:00 +30°C° 0 mm 4 m/s 727 mmHg 54%
17:00 +30°C° 0 mm 4 m/s 726 mmHg 56%
18:00 +28°C° 0.5 mm 5 m/s 726 mmHg 61%
19:00 +25°C° 0.5 mm 5 m/s 726 mmHg 66%
20:00 +22°C° 0.5 mm 6 m/s 725 mmHg 72%
21:00 +22°C° 0 mm 5 m/s 726 mmHg 71%
22:00 +22°C° 0 mm 4 m/s 726 mmHg 71%
23:00 +22°C° 0 mm 3 m/s 726 mmHg 71%

2 Agosto, Segunda-feira

Tempo Temperatura Precipitação Vento Pressão Humidade
00:00 +21°C° 0 mm 3 m/s 726 mmHg 78%
01:00 +20°C° 0 mm 3 m/s 726 mmHg 84%
02:00 +19°C° 0 mm 3 m/s 726 mmHg 91%
03:00 +18°C° 0 mm 2 m/s 726 mmHg 93%
04:00 +17°C° 0 mm 2 m/s 726 mmHg 95%
05:00 +16°C° 0 mm 2 m/s 726 mmHg 97%
06:00 +17°C° 0.1 mm 2 m/s 726 mmHg 93%
07:00 +18°C° 0.1 mm 3 m/s 726 mmHg 90%
08:00 +19°C° 0.1 mm 3 m/s 727 mmHg 87%
09:00 +19°C° 0 mm 4 m/s 727 mmHg 85%
10:00 +19°C° 0 mm 4 m/s 727 mmHg 84%
11:00 +19°C° 0 mm 5 m/s 728 mmHg 82%
12:00 +19°C° 0.1 mm 5 m/s 728 mmHg 81%
13:00 +19°C° 0.1 mm 5 m/s 728 mmHg 80%
14:00 +19°C° 0.1 mm 5 m/s 729 mmHg 78%
15:00 +19°C° 0 mm 5 m/s 729 mmHg 74%
16:00 +20°C° 0 mm 5 m/s 729 mmHg 69%
17:00 +20°C° 0 mm 5 m/s 729 mmHg 64%
18:00 +19°C° 0 mm 4 m/s 729 mmHg 70%
19:00 +18°C° 0 mm 3 m/s 729 mmHg 76%
20:00 +17°C° 0 mm 2 m/s 729 mmHg 81%
21:00 +16°C° 0 mm 2 m/s 730 mmHg 83%
22:00 +16°C° 0 mm 2 m/s 730 mmHg 84%
23:00 +15°C° 0 mm 2 m/s 730 mmHg 86%

3 Agosto, Terça-feira

Tempo Temperatura Precipitação Vento Pressão Humidade
00:00 +15°C° 0 mm 2 m/s 731 mmHg 87%
01:00 +15°C° 0 mm 2 m/s 731 mmHg 89%
02:00 +14°C° 0 mm 2 m/s 731 mmHg 90%
03:00 +14°C° 0 mm 2 m/s 731 mmHg 91%
04:00 +14°C° 0 mm 2 m/s 731 mmHg 92%
05:00 +14°C° 0 mm 2 m/s 732 mmHg 93%
06:00 +15°C° 0 mm 2 m/s 732 mmHg 87%
07:00 +17°C° 0 mm 3 m/s 732 mmHg 81%
08:00 +19°C° 0 mm 3 m/s 732 mmHg 75%
09:00 +20°C° 0 mm 3 m/s 733 mmHg 70%
10:00 +21°C° 0 mm 3 m/s 733 mmHg 65%
11:00 +22°C° 0 mm 3 m/s 733 mmHg 60%
12:00 +24°C° 0.2 mm 3 m/s 733 mmHg 58%
13:00 +24°C° 0.2 mm 3 m/s 733 mmHg 56%
14:00 +25°C° 0.2 mm 3 m/s 733 mmHg 54%
15:00 +25°C° 0 mm 3 m/s 732 mmHg 55%
16:00 +24°C° 0 mm 2 m/s 732 mmHg 56%
17:00 +24°C° 0 mm 2 m/s 732 mmHg 57%
18:00 +23°C° 0 mm 2 m/s 732 mmHg 62%
19:00 +20°C° 0 mm 2 m/s 732 mmHg 68%
20:00 +18°C° 0 mm 2 m/s 732 mmHg 73%
21:00 +18°C° 0.3 mm 2 m/s 732 mmHg 76%
22:00 +17°C° 0.3 mm 2 m/s 732 mmHg 79%
23:00 +16°C° 0.3 mm 2 m/s 732 mmHg 82%

4 Agosto, Quarta-feira

Tempo Temperatura Precipitação Vento Pressão Humidade
00:00 +16°C° 0 mm 2 m/s 732 mmHg 83%
01:00 +16°C° 0 mm 2 m/s 732 mmHg 85%
02:00 +16°C° 0 mm 3 m/s 732 mmHg 86%
03:00 +14°C° 0.1 mm 3 m/s 731 mmHg 88%
04:00 +14°C° 0.1 mm 3 m/s 731 mmHg 89%
05:00 +15°C° 0.1 mm 2 m/s 731 mmHg 91%
06:00 +15°C° 0.8 mm 2 m/s 731 mmHg 90%
07:00 +16°C° 0.8 mm 2 m/s 731 mmHg 89%
08:00 +17°C° 0.8 mm 2 m/s 732 mmHg 89%
09:00 +18°C° 0.3 mm 2 m/s 732 mmHg 84%
10:00 +19°C° 0.3 mm 2 m/s 732 mmHg 78%
11:00 +21°C° 0.3 mm 3 m/s 732 mmHg 73%
12:00 +22°C° 0.3 mm 3 m/s 732 mmHg 68%
13:00 +24°C° 0.3 mm 2 m/s 731 mmHg 63%
14:00 +25°C° 0.3 mm 2 m/s 731 mmHg 58%
15:00 +25°C° 0.1 mm 2 m/s 731 mmHg 58%
16:00 +25°C° 0.1 mm 2 m/s 731 mmHg 58%
17:00 +25°C° 0.1 mm 2 m/s 731 mmHg 57%
18:00 +23°C° 0 mm 2 m/s 731 mmHg 64%
19:00 +21°C° 0 mm 2 m/s 731 mmHg 70%
20:00 +19°C° 0 mm 2 m/s 731 mmHg 77%
21:00 +20°C° 0 mm 1 m/s 731 mmHg 76%
22:00 +20°C° 0 mm 1 m/s 731 mmHg 76%
23:00 +19°C° 0 mm 1 m/s 731 mmHg 75%
Mostrar mais

Necessitamos do seu Consentimento

A Meteoprog e os seus Fornecedores de Serviços podem armazenar e aceder a dados pessoais como cookies, identificadores do dispositivo ou outras tecnologias semelhantes existentes no seu dispositivo e processar estes dados para personalizar conteúdos e anúncios, assim como funcionalidades nas redes sociais e análise de tráfego.

  • Armazenar e/ou aceder a informações no seu dispositivo

    Os cookies, identificadores do dispositivo ou outras informações podem ser armazenados ou acedidos no seu dispositivo, para os fins acima indicados.

  • Anúncios e conteúdos personalizados, medição de anúncios e conteúdos, dados sobre o público-alvo e desenvolvimento de produtos

    Os anúncios e os conteúdos podem ser personalizados com base num perfil. Podem ser adicionados dados adicionais para uma maior personalização dos anúncios e dos conteúdos. A eficácia dos anúncios e dos conteúdos pode ser medida. Podem ser obtidas informações sobre o público que visualizou os anúncios e os conteúdos. Estes dados podem ser usados para desenvolver ou melhorar sistemas, softwares ou a experiência do utilizador.

Ao clicar em "Eu concordo”, permitirá o uso de cookies, identificadores do dispositivo e web beacons mencionados ou outras tecnologias semelhantes. As configurações do navegador do seu dispositivo podem ser alteradas.

Para certos fins, podem ser invocados interesses legítimos ao invés de consentimento. Pode ler mais informação sobre este assunto na nossa Política de Privacidade e Cookies.